Theta_e
339 339 338 338 338 337 336 335 334 335 331 330 332 332 331 331 331 331 330 330 330 329 328 328 328 328 328 328 328 327 325 323 323 324 325 324 323 323 324 324 323 319 315 316 320 321 321 321 321 321 320 320 319 320 320 321 322 323 322 322 323 323 323 323 323 323 323 324 326 327 328 328 329 329 329 330 329 330 329 329 329 329 329 329 329
339 339 339 339 339 337 337 336 335 336 332 330 331 330 330 330 331 331 330 330 330 330 330 330 329 329 329 329 329 329 328 328 328 328 328 328 328 327 326 325 325 322 315 313 316 318 319 319 319 318 318 317 316 316 316 317 318 318 319 319 320 321 322 322 322 322 322 323 325 328 330 330 330 330 329 329 329 329 329 329 329 329 329 329 329
339 339 339 339 339 338 337 336 336 336 334 332 331 330 330 330 330 330 330 330 330 330 330 330 330 329 329 329 329 329 329 329 330 330 330 330 330 330 329 329 328 326 320 316 316 317 318 320 320 321 320 318 317 316 316 317 318 319 321 322 324 325 325 326 326 326 326 325 325 327 328 328 328 328 328 328 328 328 328 328 328 329 329 329 329
338 338 339 339 339 339 337 336 335 335 335 334 332 331 330 330 330 329 330 330 330 330 330 330 329 330 330 330 330 329 329 330 330 331 331 331 331 331 330 330 330 329 327 324 323 322 323 325 325 326 325 324 323 323 323 323 324 325 326 327 328 328 328 329 329 329 329 329 329 329 328 328 328 327 327 328 328 327 328 328 328 328 328 328 329
337 337 337 338 339 339 338 336 335 335 335 334 334 332 330 330 330 329 330 330 330 330 331 331 330 330 331 331 331 331 331 331 331 331 331 331 331 331 331 331 331 331 330 329 329 328 328 329 329 329 328 328 328 328 328 328 328 329 329 329 329 329 329 329 330 330 331 332 332 332 331 331 330 330 329 329 329 329 329 329 329 329 328 328 328
336 336 336 337 338 338 338 337 335 335 335 334 334 333 331 330 329 329 329 329 329 330 330 331 330 330 330 331 332 331 331 332 332 332 332 332 332 332 332 332 332 332 332 331 331 331 331 331 330 330 330 329 329 329 329 329 329 330 329 330 330 330 330 330 331 332 332 333 333 333 333 332 332 331 331 330 330 330 330 330 330 330 329 329 328
336 336 336 336 336 336 336 336 336 335 335 334 333 333 332 331 330 329 329 329 328 329 330 330 330 330 330 330 331 331 331 332 332 333 333 333 333 333 333 333 332 332 332 332 332 332 332 332 331 331 330 330 330 329 329 329 329 329 330 330 331 331 332 332 333 332 332 332 332 332 332 332 332 332 332 331 331 331 331 331 330 330 330 329 329
335 335 335 335 335 335 335 335 335 335 335 335 333 332 332 332 331 330 330 329 328 328 329 330 330 330 330 330 331 332 332 332 333 333 334 333 333 333 333 333 333 333 333 333 332 333 332 332 332 331 330 329 329 329 329 328 328 329 330 330 330 330 330 330 330 330 330 330 329 329 331 331 331 331 332 331 331 331 331 331 331 330 330 330 329
335 334 334 335 335 335 335 335 335 335 335 335 334 332 331 331 332 331 330 329 329 328 328 329 330 330 330 330 330 331 332 333 333 334 333 334 334 333 334 334 333 333 333 333 332 332 331 330 330 331 331 329 327 326 325 325 326 327 327 327 326 326 326 325 325 325 325 325 325 325 326 326 327 328 328 327 327 327 328 330 330 330 330 329 329
334 334 334 334 334 334 334 334 334 335 335 335 334 333 332 332 332 332 330 329 328 328 328 329 329 329 329 330 330 330 331 332 333 334 334 334 334 334 334 334 333 333 332 332 332 331 330 330 331 331 330 327 324 322 322 323 323 324 323 322 322 322 322 321 321 321 321 321 321 321 322 322 324 325 325 325 325 325 327 329 329 330 330 329 329
333 333 334 333 333 334 334 335 335 335 335 335 334 333 333 332 332 332 331 329 327 327 328 329 329 329 330 330 331 332 332 333 333 334 334 334 334 334 334 333 333 333 333 332 332 332 332 332 332 332 329 324 322 322 322 322 322 322 322 322 321 321 320 320 319 318 318 319 320 321 321 322 324 326 326 326 326 326 326 327 328 329 329 329 328
333 333 333 333 334 334 334 334 334 335 334 334 334 333 333 332 331 331 330 329 327 327 327 328 330 330 330 332 332 333 333 333 334 334 334 334 333 333 333 333 333 333 333 333 333 333 333 333 333 331 326 323 324 324 324 325 324 323 323 322 322 321 321 321 319 318 318 318 319 320 321 323 324 325 325 325 325 325 326 327 327 327 328 328 327
332 332 333 334 334 333 334 334 334 334 334 334 334 334 333 332 331 331 330 328 327 327 327 327 330 331 332 332 333 333 333 333 333 333 333 333 333 333 333 332 333 333 333 333 333 334 333 333 332 329 326 326 328 327 326 327 326 325 324 324 323 323 323 322 320 320 320 321 321 322 322 323 325 325 325 325 325 325 325 326 327 327 328 328 328
332 332 333 334 334 333 333 333 333 333 334 333 333 332 332 332 331 330 329 328 327 328 328 328 329 331 331 332 332 333 333 332 332 332 332 332 332 332 332 333 334 333 333 333 333 334 333 333 331 328 328 329 329 327 326 326 326 326 327 325 324 324 323 322 322 322 322 324 325 324 323 324 325 325 325 325 325 325 324 326 327 328 328 328 328
332 332 333 333 333 333 333 333 332 332 332 332 331 331 331 331 330 329 328 328 327 327 328 329 329 330 331 332 332 332 333 332 331 332 331 331 332 332 332 333 333 333 333 334 334 334 333 331 330 330 330 330 329 327 326 325 326 327 326 325 324 323 321 322 324 324 324 326 325 325 325 325 326 325 325 325 324 324 324 325 326 327 328 328 328
332 332 332 332 332 332 332 332 331 331 331 331 331 330 329 330 329 328 327 328 328 327 328 329 330 331 332 332 332 332 334 332 330 332 332 331 332 332 332 332 332 333 333 334 333 331 331 330 330 330 329 329 329 329 327 326 326 326 324 323 322 323 322 323 325 325 326 326 325 325 324 322 321 322 323 324 324 324 324 324 326 327 327 328 328
331 331 331 331 331 331 330 331 331 330 330 330 330 329 329 328 328 328 328 327 328 328 329 330 330 332 332 333 333 333 334 331 329 331 332 333 333 332 332 332 332 333 333 332 330 330 330 330 330 329 329 329 330 329 328 326 326 325 324 323 323 324 324 324 326 326 325 324 323 322 319 317 316 315 317 319 322 324 325 325 326 326 327 327 328
329 330 330 329 329 329 329 329 330 329 329 328 328 328 328 327 327 327 328 327 327 328 329 328 329 330 329 330 332 333 332 330 331 333 332 331 332 331 332 332 332 332 330 330 329 330 330 330 329 329 329 329 329 328 327 326 326 326 324 323 324 324 323 324 326 325 323 322 321 319 318 318 317 315 314 313 317 322 325 326 326 326 327 327 327
326 326 326 327 327 327 327 327 327 326 323 322 322 321 320 320 321 320 320 321 323 323 321 321 322 322 320 322 326 329 331 331 332 333 333 331 330 330 331 331 331 330 329 329 330 330 329 329 329 329 328 329 328 328 327 326 326 324 322 322 323 323 324 325 324 322 322 321 319 319 320 320 319 318 315 312 313 317 321 325 326 326 325 325 325
324 323 323 323 322 321 321 320 319 317 315 314 313 312 311 311 312 312 311 312 314 314 313 313 314 314 314 317 320 323 326 329 331 331 332 332 331 330 330 330 330 330 329 329 330 330 329 329 328 328 328 328 327 326 326 325 323 322 321 321 322 323 324 323 321 320 321 320 319 321 322 321 319 317 315 314 313 314 317 322 325 325 325 324 324
321 320 320 318 315 314 313 310 308 309 308 308 308 309 309 308 307 307 309 310 310 310 309 309 309 311 312 315 318 318 320 325 328 328 329 331 331 330 328 328 329 328 328 328 328 328 328 328 328 328 327 326 325 324 323 322 320 320 320 320 322 323 322 321 319 319 319 319 320 322 322 320 317 314 315 315 315 315 317 319 322 324 324 324 324
315 313 314 312 311 311 309 306 305 306 306 307 308 308 308 308 308 308 310 312 310 310 311 310 309 308 311 315 317 317 318 321 322 323 325 327 328 328 326 326 327 326 326 326 326 326 326 326 326 326 326 325 323 322 320 320 320 319 319 319 320 321 320 320 319 318 319 320 321 322 321 319 315 313 314 315 316 317 318 319 320 322 323 324 323
310 309 309 308 308 308 306 305 305 305 305 306 307 307 307 308 309 309 310 311 309 310 312 312 311 310 313 315 316 316 317 318 318 318 320 322 323 325 324 323 324 324 324 324 323 325 326 326 325 324 323 322 321 320 319 319 319 319 319 319 319 319 319 319 318 317 318 319 319 319 319 317 314 312 313 315 317 318 319 319 320 321 322 322 321
308 307 307 306 305 306 305 304 305 305 305 305 305 306 306 306 306 306 307 308 308 309 310 310 310 310 312 313 314 315 316 316 316 316 316 317 318 320 320 319 319 320 320 319 319 321 322 321 320 319 320 320 319 319 318 319 319 318 318 318 318 318 318 317 317 315 315 316 316 317 316 315 314 312 312 313 315 316 317 319 320 320 321 321 320
307 306 306 305 305 306 306 305 306 305 305 305 305 305 305 305 305 305 305 306 307 307 308 308 309 309 309 310 312 313 313 314 315 315 315 315 315 315 315 315 316 316 316 315 315 315 315 315 316 317 318 318 318 318 318 317 317 317 317 317 316 316 316 316 315 313 313 314 316 315 315 315 315 315 313 312 312 313 315 318 319 319 320 319 319
306 305 305 304 304 306 306 307 307 306 305 306 306 306 306 306 306 305 305 305 306 306 306 307 307 307 307 308 310 311 311 312 313 313 313 313 313 313 314 314 314 314 313 313 313 313 313 314 316 316 315 315 316 316 316 315 316 316 315 315 315 315 314 313 312 312 312 313 315 314 314 314 315 316 315 313 313 314 315 316 317 318 318 318 319
305 304 304 304 304 305 305 306 306 306 306 306 306 306 306 306 306 306 306 306 306 305 305 305 305 306 306 307 309 310 309 310 310 311 311 311 312 312 312 313 314 313 313 313 312 312 313 313 313 313 313 313 313 313 313 313 313 313 313 313 313 313 312 312 312 313 312 311 311 311 311 312 313 314 314 314 314 315 315 315 315 316 317 318 319
303 303 303 303 303 304 304 305 305 305 305 305 305 305 305 305 305 305 306 306 305 305 305 304 304 304 305 306 308 308 308 308 308 309 309 310 310 310 310 311 312 313 312 312 312 312 312 311 311 312 311 310 309 310 310 310 309 309 310 311 311 311 311 311 311 312 311 309 309 310 311 311 311 312 313 313 313 313 313 314 314 314 315 317 318
302 303 303 303 303 304 304 304 304 303 304 304 304 304 304 304 304 304 304 304 303 304 304 303 304 303 304 305 306 307 306 307 307 307 308 308 309 308 308 308 309 310 311 312 311 311 310 309 309 309 308 307 308 307 307 306 306 306 307 307 307 307 308 308 308 309 309 309 309 309 309 310 311 311 311 311 311 310 310 312 313 313 314 315 316
302 302 302 303 303 303 303 303 303 303 303 303 303 303 303 303 303 303 303 302 302 303 303 302 303 303 303 304 304 304 303 304 305 306 306 307 307 307 307 306 306 307 308 309 309 309 308 307 306 305 305 306 305 304 303 303 303 303 303 304 304 304 305 306 306 306 306 306 307 307 308 309 310 310 309 308 308 308 308 310 311 312 312 312 313
301 301 302 302 302 302 302 302 302 303 303 303 303 303 303 303 303 302 302 302 301 301 301 301 301 302 302 302 301 301 301 302 302 302 303 303 304 305 305 305 305 304 304 305 306 307 305 304 304 303 303 302 301 300 300 300 300 301 302 302 302 303 303 303 304 304 305 306 306 307 307 308 308 307 306 306 306 306 307 308 308 309 310 311 311
300 300 300 301 301 301 301 301 301 301 301 302 302 301 301 301 300 300 300 300 299 299 299 299 299 299 299 299 299 300 300 300 300 300 299 299 300 301 301 302 302 302 302 302 302 303 302 301 301 300 300 299 299 298 299 299 300 300 301 301 302 302 302 302 303 304 304 304 304 305 305 306 306 305 305 305 304 305 305 306 306 307 308 309 310
299 299 299 299 299 299 299 299 299 299 299 299 299 299 299 299 298 298 298 298 298 298 298 298 298 298 298 298 298 299 299 299 298 298 298 298 299 298 298 299 299 299 299 300 300 300 300 299 298 298 298 299 298 298 299 299 299 299 299 299 300 300 301 302 302 302 301 301 302 303 304 304 305 304 305 305 304 303 304 304 304 304 306 307 307
297 297 297 297 297 298 298 297 297 297 297 297 297 297 297 297 297 297 297 297 296 296 297 297 297 297 296 297 297 297 297 297 297 296 297 297 297 297 297 297 298 298 298 298 298 298 298 297 297 297 297 298 297 298 298 298 298 298 298 298 298 299 300 299 299 298 298 299 300 301 302 302 303 304 305 305 304 303 302 301 300 301 303 305 306
296 296 296 296 296 296 296 296 295 295 295 295 295 295 295 295 295 295 295 295 295 295 295 296 295 295 295 295 295 295 295 295 294 294 295 295 295 296 296 296 296 296 296 296 296 296 296 296 296 296 296 296 296 296 296 296 297 297 296 296 297 297 296 295 295 296 296 296 297 298 300 302 303 304 304 304 303 302 300 298 298 300 302 303 305
295 295 295 295 295 294 294 294 294 293 293 293 293 293 293 293 293 293 293 293 294 294 294 294 294 294 294 294 294 294 294 293 293 293 293 294 294 294 294 294 294 294 294 294 294 295 295 295 295 295 295 295 295 294 294 295 295 294 294 295 295 293 293 293 294 294 294 294 295 296 299 302 303 303 302 302 301 299 298 297 299 300 302 303 305
294 293 293 293 293 292 292 292 292 292 292 292 292 292 292 292 292 292 292 293 293 293 293 293 293 293 292 292 293 292 292 292 291 291 292 292 292 293 293 292 292 292 292 293 293 293 293 294 294 294 294 294 293 293 294 294 293 293 293 294 293 292 292 292 292 292 292 293 294 296 298 300 299 299 298 297 297 297 297 298 299 300 301 303 304
293 292 292 292 292 291 291 291 291 291 291 291 291 291 292 292 292 292 292 292 292 292 292 292 292 292 292 291 291 291 291 291 290 290 290 291 291 291 291 290 290 290 291 291 292 292 293 293 293 293 293 292 292 293 292 292 292 293 293 293 292 291 291 291 290 290 291 292 294 295 296 296 295 295 295 295 296 297 298 299 299 299 300 301 302
291 291 291 291 291 290 290 290 290 290 290 291 291 291 291 291 291 291 291 291 291 291 291 291 291 291 290 290 290 289 289 289 289 289 289 289 290 290 289 288 289 289 290 290 291 291 292 291 291 291 291 291 291 291 291 291 291 292 292 292 291 290 290 290 290 290 290 292 293 293 293 293 293 293 294 295 296 297 298 299 299 299 300 300 300
290 290 290 290 290 290 290 290 290 290 290 290 290 290 290 290 291 291 290 290 290 290 290 290 290 289 288 288 288 288 287 287 287 287 287 287 288 288 288 287 288 288 289 289 290 290 290 290 290 290 290 290 290 290 290 290 290 291 290 290 289 289 289 289 289 289 290 291 291 291 291 292 293 293 294 295 296 297 298 299 298 298 299 299 300
289 289 289 289 289 289 289 289 288 289 289 289 289 290 290 290 290 290 290 290 290 289 289 289 290 289 288 288 288 287 286 286 286 286 285 286 286 286 286 286 287 287 288 288 289 289 289 289 289 289 289 289 289 289 289 289 289 289 289 288 288 288 288 288 288 288 289 290 290 289 290 291 292 293 294 296 297 297 298 298 298 298 299 298 299
288 288 288 288 287 287 287 287 287 287 288 288 289 289 289 289 289 289 289 289 289 289 288 288 288 289 289 288 288 287 286 286 286 285 285 285 286 286 286 286 287 287 287 288 288 288 288 288 288 288 288 288 288 289 289 289 289 288 288 288 288 288 288 288 288 287 288 288 288 289 290 291 292 293 294 295 296 296 297 297 298 298 298 298 298
287 287 287 286 286 285 285 285 285 285 285 287 288 288 288 288 288 288 288 288 287 287 287 287 287 288 288 288 288 286 285 285 284 283 283 284 285 285 285 286 287 287 287 287 287 287 288 288 288 288 288 288 288 288 288 288 288 287 287 287 288 288 288 288 288 288 287 287 288 289 290 291 292 293 294 294 295 295 296 297 297 297 297 297 298
286 286 285 285 284 284 283 283 283 283 283 285 286 287 287 287 287 287 287 286 285 285 286 286 286 286 286 287 286 285 284 284 282 281 282 283 283 284 284 285 286 286 286 287 287 287 288 288 288 288 288 288 288 287 287 287 287 286 287 287 287 288 288 288 288 288 287 287 288 289 290 291 292 292 293 293 294 294 295 295 295 295 296 297 299
285 285 285 284 283 282 282 282 282 282 282 283 284 286 286 286 286 286 285 284 284 285 285 285 285 285 285 285 285 285 284 283 281 281 281 281 282 283 283 284 285 285 285 286 287 288 288 288 288 287 287 287 287 286 286 286 286 286 286 287 287 287 288 288 288 288 287 288 289 290 291 291 291 292 293 293 292 293 293 293 293 295 296 298 299
284 284 284 284 283 282 281 281 281 282 282 282 282 283 284 284 284 284 284 284 284 284 284 284 284 283 284 284 284 284 284 282 280 281 281 280 281 282 282 283 283 284 284 285 286 287 287 286 287 286 286 286 286 285 285 285 286 286 287 287 287 287 288 288 288 288 288 289 290 290 290 290 291 292 292 291 291 291 291 292 293 294 296 297 299
283 284 284 283 282 280 280 280 280 281 281 281 281 282 283 283 283 283 283 284 284 282 282 283 283 282 282 283 283 284 283 281 280 280 281 280 280 280 281 281 282 282 283 285 286 286 286 286 285 285 285 285 285 285 285 286 286 286 287 287 287 288 288 288 288 289 289 289 289 290 290 290 291 291 290 290 290 291 291 291 292 293 296 297 298
282 283 283 282 281 280 279 280 280 280 280 280 281 282 283 283 283 282 282 282 282 281 281 283 283 282 281 281 282 282 281 280 280 280 281 280 279 279 280 280 281 282 283 284 285 284 283 283 283 283 284 284 285 285 285 286 286 286 287 287 288 288 288 288 289 289 289 289 289 289 290 290 289 289 289 289 290 290 290 290 292 294 296 296 296
282 282 282 282 282 280 279 279 279 279 279 279 280 281 282 282 282 282 282 282 281 281 281 282 282 282 281 281 281 280 279 279 280 280 280 280 279 279 280 280 280 281 282 283 282 281 280 280 281 282 283 284 285 285 285 285 286 287 287 287 288 288 288 289 289 289 288 288 288 289 289 289 288 289 289 289 289 289 290 291 292 293 293 293 293
281 281 282 282 281 280 280 279 278 278 278 279 279 280 281 281 281 281 281 281 280 280 280 281 282 282 282 281 281 280 278 278 279 280 280 279 278 278 279 280 280 281 282 281 280 279 280 281 281 282 282 283 284 284 284 285 286 286 286 287 287 287 287 287 288 287 287 287 288 288 288 288 288 288 288 288 288 289 290 291 291 291 291 292 292
280 280 281 281 281 280 279 279 278 277 277 278 279 279 279 280 281 281 280 279 278 278 279 281 281 281 281 281 280 280 279 278 279 279 279 279 278 278 280 281 281 281 281 279 279 280 281 281 281 281 281 281 282 283 284 284 284 284 285 285 284 284 284 285 285 285 286 286 286 287 287 288 288 288 288 288 288 288 289 290 290 290 291 292 292
Wind_Speed
20 20 21 22 22 20 18 16 16 15 12 12 15 12 9 9 11 9 8 9 8 8 8 7 6 6 7 7 6 7 7 7 8 8 9 10 10 12 13 13 13 12 12 13 13 12 12 11 11 11 11 12 12 12 12 13 13 13 13 13 13 14 14 15 16 17 17 17 17 17 18 18 19 19 19 20 20 21 21 22 22 22 22 23 23
20 20 21 22 22 22 22 20 19 18 15 14 14 13 11 11 11 10 9 9 8 7 7 7 7 7 7 7 7 8 7 7 7 6 7 7 7 8 10 11 10 10 10 11 12 12 12 12 11 12 12 12 12 13 13 13 13 13 13 13 14 14 15 15 16 16 17 18 18 18 19 20 20 21 21 21 21 21 21 22 22 23 23 23 23
20 19 20 22 23 25 25 22 20 17 16 16 15 14 12 11 11 11 9 9 9 8 8 8 8 8 8 8 9 10 9 8 8 7 7 7 8 9 9 9 8 7 7 8 10 10 10 10 9 9 9 10 11 12 12 13 13 13 13 13 13 13 14 14 15 15 17 18 18 18 20 21 22 22 23 23 22 22 22 22 23 23 23 24 25
18 18 18 19 20 23 24 22 20 17 16 16 15 15 14 12 11 11 10 10 9 8 9 10 9 9 9 9 10 10 8 7 8 8 9 9 8 9 10 10 9 7 6 6 7 7 8 8 7 6 7 8 9 10 11 11 11 12 12 12 13 13 14 14 15 16 17 18 18 19 20 21 22 23 23 24 24 24 23 23 23 23 24 25 26
16 16 17 18 16 17 20 19 18 18 17 16 15 16 16 14 12 12 11 10 11 9 8 9 10 10 10 10 11 11 8 7 8 9 10 11 10 10 10 10 10 9 8 7 7 6 6 7 7 7 7 8 9 10 11 11 11 12 13 14 14 15 16 16 17 18 18 19 20 21 22 23 23 24 24 25 25 26 26 25 25 25 25 25 26
16 16 16 17 16 16 17 17 17 18 18 17 17 16 16 15 12 12 12 11 12 11 9 10 11 11 11 11 12 12 10 9 11 10 10 11 11 11 10 9 10 11 10 10 10 9 9 9 9 9 9 10 11 12 13 13 14 14 15 16 17 17 18 19 19 19 20 21 22 23 24 25 26 26 26 26 27 27 28 27 28 27 27 27 27
17 16 16 17 16 16 17 17 17 19 19 17 18 18 16 15 13 13 12 12 13 13 12 12 12 13 12 11 11 11 10 10 11 12 12 12 13 14 13 12 13 13 13 13 13 13 11 11 11 11 11 12 13 14 15 16 16 16 17 18 19 19 19 20 20 20 22 23 24 24 25 26 27 27 27 27 28 28 29 29 29 29 29 29 29
18 16 16 18 18 17 17 18 19 20 19 18 18 19 18 16 15 15 13 12 13 13 13 13 14 14 13 12 12 12 12 11 10 13 14 15 15 15 15 15 15 16 16 15 15 15 14 13 14 14 14 14 15 16 18 18 18 18 19 19 19 20 19 19 19 20 21 22 23 23 24 25 26 26 27 28 28 29 30 30 31 30 30 30 29
19 18 17 17 18 18 16 17 20 22 21 20 18 18 19 17 15 15 14 13 14 14 13 14 15 15 14 14 15 15 15 15 14 13 15 17 17 17 17 16 17 17 17 18 18 17 17 16 15 15 15 16 16 16 16 17 17 17 16 16 16 16 16 16 16 17 18 19 20 21 22 23 24 24 25 25 26 27 28 29 30 30 29 29 28
20 20 19 17 17 17 17 16 18 20 20 20 18 16 17 17 15 14 14 13 14 13 14 15 15 15 15 16 15 14 15 17 17 16 17 18 18 18 18 17 18 19 19 19 19 18 17 16 15 15 16 16 14 12 11 11 11 10 11 12 12 13 13 14 15 16 17 18 19 19 20 21 21 22 22 22 23 24 25 26 28 28 27 27 27
21 21 20 19 18 18 19 18 17 18 18 19 18 16 17 18 16 14 13 14 15 14 14 13 14 16 17 17 16 16 16 16 17 18 19 20 19 18 19 19 18 18 18 18 18 17 15 15 15 15 14 13 11 10 9 8 8 9 11 12 12 13 14 15 16 17 18 18 19 19 19 20 20 20 21 22 23 24 24 25 26 26 26 27 27
22 22 21 20 19 19 20 19 19 20 20 19 17 17 18 18 17 15 13 13 14 16 15 13 13 16 17 18 17 17 17 18 19 19 20 21 20 20 20 20 19 19 19 19 19 18 16 15 15 14 12 10 10 10 10 10 11 12 13 13 14 15 15 16 18 18 18 19 19 19 19 20 19 20 21 22 23 24 25 25 25 24 24 25 26
22 23 22 21 20 17 17 17 19 20 22 21 19 17 16 17 17 16 15 14 14 15 16 15 14 13 14 16 18 19 19 19 21 22 23 23 22 22 21 20 20 19 18 18 18 17 16 14 13 11 9 8 9 10 11 11 13 14 14 15 16 16 16 18 20 20 21 22 20 20 20 20 20 21 22 23 24 25 25 25 24 22 24 25 26
21 23 22 22 21 19 15 14 14 16 18 18 17 16 15 14 14 14 15 16 16 15 14 15 15 12 10 9 12 17 20 23 25 25 26 25 25 24 21 19 19 18 17 16 15 15 13 11 9 7 7 8 9 9 10 11 13 14 15 16 17 16 17 19 20 21 22 21 20 20 21 21 21 22 23 24 25 26 26 25 24 24 24 26 27
19 21 21 20 20 20 17 14 12 12 14 14 15 15 14 13 13 14 13 13 16 16 15 16 16 14 10 6 5 6 11 17 24 27 27 26 26 24 20 18 18 16 15 14 12 11 9 7 5 5 6 8 9 8 9 11 12 13 14 16 18 19 20 20 21 22 21 20 20 21 21 22 22 23 24 25 26 26 27 26 25 25 25 26 27
19 19 19 19 17 17 17 15 13 11 12 12 12 12 13 13 14 15 14 12 13 15 17 19 19 14 7 3 3 3 4 8 15 23 27 26 24 23 19 17 16 14 13 12 11 10 8 6 5 5 7 8 9 10 10 11 11 12 14 17 20 21 22 22 22 21 19 19 20 19 19 20 20 21 22 24 25 26 26 26 26 27 27 26 27
19 19 19 18 17 16 16 16 15 13 11 11 10 9 9 11 12 14 14 13 14 15 15 17 21 21 15 7 3 2 3 4 7 12 21 25 23 20 17 15 15 14 13 12 10 9 9 9 9 8 9 9 10 11 12 12 12 13 15 18 20 22 23 23 20 19 20 20 19 18 20 21 22 23 23 23 24 25 26 26 26 27 27 26 26
17 18 18 17 17 17 16 16 15 13 10 8 7 5 5 6 6 7 8 9 11 11 8 8 11 14 16 15 13 11 6 5 5 4 13 21 22 20 18 16 16 15 13 12 10 8 8 10 10 10 10 11 12 12 12 12 13 15 17 19 21 22 22 20 19 21 22 20 19 20 23 24 25 27 27 26 25 24 25 26 26 26 26 25 25
13 13 14 15 15 14 13 14 14 13 10 8 6 4 3 3 4 3 2 2 1 3 5 6 5 7 11 14 17 19 17 12 6 1 4 9 14 19 19 16 15 14 12 12 11 9 7 8 9 9 9 11 11 11 12 13 15 17 19 20 20 20 20 19 21 22 21 20 21 23 23 24 25 27 30 30 28 26 25 26 26 25 25 24 24
11 11 12 12 12 13 12 10 10 10 9 8 7 6 5 4 5 6 6 7 7 6 7 9 9 11 16 19 19 19 18 18 14 6 2 2 5 11 11 11 12 12 11 11 11 10 10 9 9 9 10 11 12 13 14 15 17 19 19 19 18 18 18 19 21 21 20 21 22 22 22 25 27 29 31 32 31 29 27 26 26 25 24 24 25
15 15 15 13 11 11 10 7 7 7 7 8 9 8 7 5 4 5 4 5 7 6 5 6 8 10 14 16 18 20 19 11 9 7 2 2 1 3 3 4 6 8 9 9 9 9 9 10 10 11 11 12 12 13 14 16 17 16 16 16 17 17 18 20 21 20 20 21 21 21 22 26 30 32 32 31 31 30 28 27 26 25 25 25 25
20 18 17 15 13 13 12 11 12 12 11 11 11 11 9 6 3 3 3 3 5 6 5 5 6 7 8 11 14 16 15 12 12 12 5 1 2 2 3 3 2 4 5 7 10 10 10 10 11 11 12 12 13 14 15 15 15 14 15 16 17 17 18 20 21 21 21 21 20 20 22 26 30 32 32 31 30 30 28 27 27 25 25 25 25
23 21 19 18 17 16 15 14 14 14 14 13 13 13 10 6 3 1 1 2 3 5 5 5 5 6 6 7 11 13 10 9 12 15 11 6 4 3 4 6 5 6 6 8 10 11 11 10 10 11 11 12 12 13 13 13 13 14 15 16 17 17 19 20 21 22 22 22 22 23 24 27 30 31 31 30 29 28 28 27 26 26 26 25 24
25 24 23 21 21 20 18 17 16 15 14 12 12 12 10 7 6 4 1 1 1 2 3 5 5 5 6 6 7 8 10 11 11 13 13 10 8 4 6 11 8 7 9 9 9 8 8 9 10 10 9 9 10 10 11 12 12 13 14 16 17 19 21 22 24 25 25 25 25 25 26 28 30 31 31 30 29 28 28 27 26 26 25 24 24
28 27 26 25 24 22 21 19 17 15 15 12 10 10 9 8 7 6 5 4 1 0 1 3 5 5 5 5 4 4 7 9 9 10 11 12 11 6 8 11 7 7 11 12 10 10 10 9 7 6 6 7 8 9 10 11 12 13 16 18 20 21 23 25 27 29 29 27 26 27 28 28 28 29 31 31 30 29 28 27 27 27 27 26 26
32 31 29 28 26 24 22 20 18 16 15 12 10 10 9 8 8 8 8 6 4 3 3 2 2 4 5 5 6 5 4 5 6 8 10 11 11 9 8 9 8 8 10 11 11 9 7 5 5 6 7 8 9 9 11 12 13 15 18 20 22 24 26 27 28 29 29 28 28 30 30 29 28 28 29 30 30 30 29 27 27 27 28 28 28
33 32 31 30 28 25 23 21 19 17 16 14 13 12 12 11 12 11 9 7 7 6 5 4 3 2 4 6 7 8 8 6 6 7 9 9 10 10 9 6 5 5 6 8 9 7 6 9 8 8 10 11 11 12 13 14 16 17 19 21 23 24 24 24 24 24 27 29 30 30 30 30 30 29 29 29 29 28 28 28 27 27 28 28 29
31 31 30 29 28 27 24 21 19 18 17 16 15 14 14 14 14 13 11 10 9 8 7 6 5 4 4 5 5 7 8 9 9 8 8 8 8 10 12 9 5 3 3 4 5 5 8 13 10 7 11 15 16 16 17 18 19 19 20 21 21 21 21 21 22 23 26 27 28 28 29 29 29 29 29 29 28 28 27 27 27 27 27 27 28
29 28 28 27 27 26 24 22 21 20 19 18 17 16 15 14 14 13 12 12 11 9 8 7 6 6 6 6 4 4 4 5 7 7 6 7 8 9 12 13 10 5 2 2 3 3 8 13 12 10 16 19 19 19 20 21 20 19 19 20 21 21 21 22 23 23 24 24 25 26 28 28 27 28 28 29 28 29 28 27 26 27 27 26 26
27 27 26 26 25 25 24 24 23 22 21 20 19 17 16 16 15 14 13 12 12 11 10 10 9 8 8 7 5 3 3 2 3 4 4 5 5 6 8 11 12 9 4 3 3 4 10 14 14 16 20 22 22 22 23 22 22 22 22 23 23 23 22 22 22 22 22 23 24 25 26 27 27 28 29 30 29 29 29 28 27 27 27 26 25
24 25 25 25 24 24 24 24 23 22 22 21 20 19 18 18 17 16 15 14 15 14 13 12 11 10 10 9 8 7 5 4 3 2 3 4 4 4 5 7 10 11 9 6 2 4 13 17 18 20 22 23 23 23 24 25 26 27 27 27 27 25 24 25 25 24 23 23 24 26 27 27 29 30 31 30 30 29 28 28 28 29 28 29 28
23 23 24 24 24 24 24 24 23 23 23 22 21 20 19 19 18 17 16 16 16 16 14 14 13 12 12 12 11 10 8 7 5 4 4 4 3 3 4 5 7 9 11 10 4 7 14 17 19 21 22 23 23 23 26 28 28 29 29 29 29 28 28 28 27 25 25 25 25 26 26 27 28 30 32 31 31 30 29 29 30 31 30 30 30
24 24 24 23 24 24 24 24 23 22 22 22 21 20 20 19 18 17 17 17 17 17 16 15 14 12 13 13 13 11 10 9 8 7 7 7 5 5 5 5 6 7 9 9 7 8 14 16 18 20 20 22 23 23 26 29 30 30 30 30 30 30 29 28 27 27 26 26 25 25 26 26 28 29 30 31 33 33 31 32 32 32 31 30 31
24 25 25 24 23 23 24 23 23 22 22 22 20 20 19 19 18 17 16 16 17 16 15 15 13 12 12 13 13 12 11 11 10 9 9 9 8 8 8 6 6 7 6 7 7 7 11 16 18 19 18 20 22 23 24 27 28 29 30 31 30 29 28 28 28 29 28 27 26 26 26 26 26 27 28 31 34 34 34 35 36 34 32 31 31
25 25 24 24 23 23 23 23 22 22 22 21 20 19 19 18 18 17 16 16 16 16 15 14 13 12 13 13 13 11 10 11 10 10 10 10 9 10 9 7 7 6 5 6 7 7 10 14 16 17 18 19 20 22 23 24 26 27 29 29 29 29 29 30 30 30 29 29 28 27 26 25 24 25 27 30 32 34 37 39 38 34 32 31 32
25 24 24 24 23 23 23 23 22 22 21 21 20 19 18 18 18 17 16 16 16 16 16 15 13 13 13 14 13 11 10 11 11 11 11 11 10 10 9 7 6 6 5 5 5 6 8 12 13 15 17 18 19 20 22 24 26 26 26 27 29 31 31 31 31 32 32 31 30 29 26 25 25 26 29 31 33 36 38 38 36 34 33 32 32
25 24 24 24 24 24 24 23 23 22 21 21 21 20 19 19 18 18 18 18 17 17 16 15 14 13 13 14 12 11 11 12 12 11 11 11 10 9 8 7 6 6 6 6 6 6 8 11 14 16 16 17 19 20 21 24 26 26 26 27 29 30 32 33 34 34 34 33 32 30 27 26 28 30 32 33 35 36 35 34 35 35 34 33 33
25 25 25 25 25 25 24 24 24 23 22 21 21 21 20 20 19 19 19 18 17 17 17 16 15 14 13 13 12 11 12 12 11 10 10 11 10 9 8 7 8 8 8 8 8 8 9 11 13 15 16 17 19 19 20 21 23 24 26 28 30 30 31 34 36 36 35 33 31 30 30 31 32 33 34 35 35 34 33 33 35 36 35 35 35
26 26 26 26 25 25 25 25 24 23 23 22 22 21 20 20 20 19 19 18 18 18 17 16 15 13 13 13 12 12 12 11 10 9 10 10 9 9 9 8 9 9 9 9 9 9 10 11 11 13 15 15 16 17 19 19 19 19 22 26 31 32 32 33 36 37 35 33 31 31 34 35 36 36 35 35 34 34 33 34 36 36 37 37 37
27 27 27 27 26 26 25 25 24 23 24 24 22 21 20 20 20 19 18 18 18 18 17 16 15 14 14 14 14 13 12 12 11 11 10 9 8 8 8 8 8 7 7 7 8 7 7 8 9 10 12 13 14 16 18 20 20 20 22 23 26 30 32 33 34 35 33 32 33 36 39 39 39 38 37 36 36 35 34 34 36 37 38 38 38
27 27 27 27 27 27 26 25 24 23 24 23 22 21 21 20 19 19 19 18 17 17 16 16 15 14 15 15 14 13 13 13 13 12 11 10 9 9 8 7 6 6 6 5 6 6 6 7 8 10 12 13 14 16 19 20 20 22 24 24 23 27 31 32 33 33 30 30 35 40 41 40 39 38 37 37 37 37 36 36 36 37 38 39 39
27 27 27 27 27 26 26 25 24 23 23 21 20 21 21 20 18 18 18 17 16 16 16 16 15 14 14 13 11 10 11 11 10 9 10 10 10 9 8 7 6 6 5 6 6 7 8 9 10 11 13 15 17 18 19 21 22 23 25 24 24 27 28 27 30 33 31 32 37 40 40 40 39 37 35 35 37 38 37 37 37 38 39 40 40
27 27 26 26 25 25 25 25 24 23 21 19 19 20 20 19 18 17 17 16 16 16 15 15 15 14 13 11 9 8 8 8 7 7 7 8 8 8 7 7 7 7 7 8 8 8 9 10 13 13 13 16 20 21 20 22 23 23 24 23 22 24 24 20 22 29 34 37 36 35 36 39 38 36 35 36 37 38 37 37 38 39 40 40 39
26 27 26 26 25 24 25 25 24 23 20 17 18 19 19 18 17 16 16 15 15 16 15 14 13 12 12 11 10 9 7 7 7 8 8 8 9 8 8 7 6 6 6 7 8 10 11 12 14 16 14 16 21 22 22 23 24 25 24 22 20 20 21 19 19 26 34 39 36 32 31 35 36 35 36 38 38 39 38 39 40 40 39 37 35
26 27 26 25 24 24 25 25 24 23 20 17 17 17 17 16 15 15 15 15 15 15 14 14 12 12 11 11 10 8 7 7 9 9 10 10 10 10 9 7 6 6 5 4 5 7 9 11 13 16 17 17 20 24 24 23 25 26 23 22 22 21 21 22 23 29 34 35 34 31 29 33 36 34 35 38 39 40 41 42 41 39 37 34 32
27 26 25 25 23 22 23 25 25 23 19 16 16 16 16 15 14 14 15 16 15 14 14 13 12 11 11 11 11 8 5 8 11 12 12 12 11 11 10 9 8 7 6 4 4 5 7 9 12 16 18 18 21 23 24 23 25 26 24 24 25 24 25 26 26 29 30 28 29 28 26 30 34 32 33 38 40 40 42 42 41 38 34 32 30
26 25 24 23 21 21 23 24 24 22 18 16 16 17 16 16 14 14 14 15 14 14 13 13 11 10 10 11 10 7 4 8 12 13 13 14 13 12 12 11 10 10 8 7 7 7 9 11 13 17 19 20 21 22 23 23 24 25 25 25 26 26 27 26 25 26 25 24 26 25 22 27 32 32 34 39 40 41 40 39 38 35 32 30 31
25 25 24 22 21 21 22 22 22 21 18 16 16 16 16 16 14 14 14 14 14 14 13 12 10 9 9 9 8 5 4 8 12 13 13 13 13 13 14 14 13 12 10 9 8 9 12 14 14 16 17 18 19 20 21 22 22 23 24 24 25 25 24 22 22 23 23 24 27 24 22 26 31 32 36 39 38 39 40 37 33 30 29 31 34
24 24 24 22 20 20 20 20 21 20 18 16 16 16 16 16 15 14 14 14 14 13 12 12 10 9 9 8 6 5 8 10 12 13 13 13 13 13 14 15 16 15 14 13 13 15 16 16 15 15 16 17 17 18 19 18 18 21 23 23 24 24 21 18 17 21 25 26 24 22 22 27 32 32 35 38 37 35 35 31 27 28 33 38 38
24 24 24 23 21 18 17 17 19 19 18 17 16 16 16 14 14 13 12 12 13 13 13 13 11 9 9 9 8 9 10 11 11 12 13 13 13 12 13 15 16 17 18 19 21 20 19 17 17 17 18 18 18 17 17 17 17 18 20 21 24 24 21 17 17 23 27 22 18 21 25 29 31 31 34 37 36 30 25 24 29 35 38 40 41
24 23 24 25 23 20 17 16 17 18 19 18 17 16 14 12 11 11 9 10 12 13 13 13 12 10 9 8 8 8 9 10 11 12 13 13 12 11 12 12 13 16 19 22 22 21 21 21 21 21 20 18 17 16 16 16 15 15 16 19 22 24 22 22 22 21 18 16 19 24 26 27 30 31 31 28 24 22 23 25 33 39 39 39 42
Wind_Direction
207 204 199 196 196 195 198 196 196 200 190 184 198 200 188 192 198 193 193 203 216 225 229 233 235 235 244 249 250 262 263 248 239 233 240 246 244 246 254 264 272 274 263 253 252 250 251 253 256 260 263 265 266 267 269 271 273 276 279 280 281 282 282 282 284 284 285 286 287 287 288 289 290 291 292 294 293 292 290 289 287 285 282 279 277
200 202 201 199 199 200 198 194 198 200 191 186 192 197 197 194 198 204 207 212 215 222 231 231 239 244 247 254 255 258 260 264 266 253 248 255 259 257 260 269 278 281 266 252 250 250 252 254 256 258 260 261 263 264 265 265 267 269 273 276 278 280 281 281 282 283 284 285 286 286 287 288 289 291 292 293 294 293 293 291 290 288 286 283 280
198 200 200 202 204 205 202 198 201 200 191 191 189 191 199 198 201 207 211 217 218 222 230 233 245 251 248 250 254 254 244 243 263 268 262 259 261 267 272 278 285 289 276 259 251 249 250 250 252 255 257 260 260 261 263 264 266 268 272 274 276 279 279 278 280 283 285 285 285 283 283 284 286 288 290 291 292 293 293 292 291 290 289 287 285
203 204 201 202 206 210 210 205 205 206 197 191 190 192 196 197 195 197 203 213 216 220 229 235 244 246 247 250 257 261 243 227 243 250 254 257 254 257 265 272 280 286 279 266 254 247 247 248 249 251 255 258 258 260 261 263 266 269 272 275 278 281 282 279 280 283 284 285 284 283 283 284 285 286 287 288 290 291 291 290 289 289 288 288 288
206 210 206 204 206 209 211 206 207 210 202 193 195 198 197 200 200 200 209 211 206 207 220 234 241 240 239 240 249 260 253 238 245 243 244 252 258 259 258 261 270 276 277 273 266 260 257 256 255 257 260 261 264 266 268 270 272 275 278 280 283 284 285 284 283 283 284 284 285 285 286 287 287 287 287 287 287 288 288 289 288 288 287 287 287
205 207 208 210 210 209 208 206 208 208 204 199 199 202 201 202 204 210 219 222 215 212 221 235 242 242 236 233 239 247 247 240 242 244 242 244 255 263 262 261 264 270 276 277 274 270 265 264 261 258 261 266 270 272 274 276 277 279 282 283 284 284 284 283 283 283 284 284 285 286 287 288 288 289 289 288 287 287 287 287 287 287 287 288 287
207 205 208 209 208 209 210 210 208 207 209 208 204 207 208 205 207 212 218 226 225 220 225 235 240 242 241 240 243 247 249 239 230 235 242 240 242 249 252 253 254 257 261 265 267 267 267 269 267 265 267 269 271 274 277 279 280 281 282 283 284 283 282 282 283 283 283 283 283 283 284 285 286 287 287 287 286 286 286 286 286 286 287 288 288
206 207 210 211 211 210 215 218 215 211 211 211 210 212 214 211 211 216 217 224 232 228 228 232 234 238 243 244 246 251 257 256 239 232 240 245 245 246 247 248 249 250 251 254 257 259 261 266 268 271 273 273 275 278 279 278 278 279 280 283 284 285 285 286 288 288 287 287 286 285 284 284 285 284 284 284 285 285 285 285 285 285 286 287 288
203 207 210 212 215 213 216 221 217 213 209 209 213 217 218 214 211 218 220 220 230 233 232 234 235 236 238 241 243 242 246 252 252 246 246 249 253 253 251 249 250 251 252 251 251 253 258 263 268 272 275 280 283 283 280 278 277 278 283 286 289 291 293 296 299 299 299 298 297 295 293 291 288 287 286 286 287 287 285 283 283 284 284 285 286
205 207 210 211 214 215 214 212 207 207 208 210 213 213 215 212 206 213 218 218 225 233 236 237 238 238 241 244 244 240 239 241 245 248 247 248 251 254 254 252 251 252 255 255 254 255 258 263 267 271 278 286 291 292 290 287 286 291 299 302 303 305 309 312 313 312 311 308 306 304 302 300 297 295 294 294 293 293 290 283 280 280 281 282 284
208 210 213 213 215 217 216 212 206 204 206 209 210 210 210 211 208 209 216 224 226 230 238 243 242 241 241 243 241 242 242 242 244 246 247 248 250 253 254 254 253 252 254 259 262 261 262 265 268 275 283 289 294 301 309 310 311 317 319 317 316 318 319 320 320 319 317 314 311 309 308 306 302 300 299 299 299 300 298 291 283 279 279 281 283
209 209 212 213 216 220 223 224 220 213 209 207 209 211 210 211 213 211 215 226 230 233 237 242 253 250 242 244 245 246 246 245 247 248 250 251 250 251 252 253 254 254 253 255 259 261 262 264 267 275 283 292 300 308 315 319 322 323 322 320 319 319 320 322 324 324 322 321 318 314 312 309 306 304 304 303 303 303 301 297 291 284 282 284 285
212 210 210 211 213 215 219 225 227 223 218 213 211 210 210 213 216 216 218 224 230 240 241 239 256 262 249 249 252 250 248 247 246 244 245 247 248 249 250 253 255 255 254 254 254 256 259 260 262 271 284 295 302 309 315 320 322 322 320 318 319 318 317 321 324 325 325 323 319 315 314 313 310 308 307 306 305 304 302 299 294 287 284 285 287
204 207 209 210 211 209 207 213 224 230 227 222 219 217 215 213 213 214 218 226 231 239 242 234 241 252 251 258 261 255 251 249 248 246 243 243 245 246 248 251 252 251 253 253 251 253 256 260 264 271 283 289 296 305 313 317 316 314 312 313 317 317 317 320 320 322 322 319 316 315 316 315 312 309 306 304 302 302 301 298 293 287 286 287 288
193 196 200 204 208 209 207 204 208 221 227 227 226 224 220 214 213 215 214 224 232 234 235 231 231 240 246 251 255 261 256 247 246 246 243 241 242 243 244 245 245 247 248 244 244 247 253 266 274 266 271 284 296 302 304 306 306 305 307 312 316 317 319 319 317 318 319 315 314 314 313 312 310 308 305 303 302 301 300 298 294 290 288 288 289
193 192 195 198 201 204 207 206 201 207 216 214 211 212 215 217 220 221 219 223 235 236 233 231 232 235 238 240 232 256 264 241 237 240 238 235 236 237 237 238 237 240 241 235 233 238 243 252 251 256 273 283 289 291 294 299 303 305 309 313 313 313 315 315 313 316 317 313 312 311 312 314 317 316 312 309 308 305 303 301 297 293 290 290 291
201 201 200 201 203 204 205 207 203 203 207 200 193 195 203 212 218 223 226 232 245 249 241 232 233 234 233 234 236 232 256 262 252 236 225 221 224 227 226 224 224 229 234 232 234 240 240 240 244 256 269 270 271 280 289 295 299 302 306 308 307 307 309 311 311 314 316 316 315 317 320 324 329 329 326 323 318 311 306 303 301 298 294 293 293
205 205 206 209 211 211 210 208 202 197 194 190 186 179 178 186 191 203 217 232 242 246 256 257 248 248 250 256 262 258 266 310 314 243 210 212 216 214 211 215 218 222 226 228 237 246 239 237 246 254 258 262 267 276 284 291 294 296 301 303 302 305 307 308 311 315 318 320 321 324 326 328 330 330 330 328 324 317 311 306 305 303 299 296 297
211 209 208 207 203 198 193 191 187 177 161 148 145 126 104 99 88 80 58 14 33 99 49 16 3 353 337 323 308 289 277 272 274 291 207 214 214 207 205 211 217 218 220 227 238 247 248 245 248 252 257 263 268 275 281 287 292 296 302 305 303 304 304 305 312 318 321 322 324 327 328 327 327 328 327 327 324 321 315 310 306 305 303 301 301
194 183 174 168 161 151 147 151 158 161 147 126 114 95 77 59 40 28 24 22 24 36 36 29 26 11 0 358 355 340 308 271 252 249 184 170 210 206 204 212 217 221 223 232 240 245 255 258 255 254 258 266 272 277 283 289 296 300 304 306 303 300 300 306 316 323 325 324 327 330 329 326 326 328 328 327 325 322 319 313 307 304 305 305 304
160 156 154 149 148 148 146 132 121 136 142 127 114 97 81 67 40 18 18 24 15 0 353 16 25 14 2 355 360 4 356 328 290 283 215 150 230 223 239 251 243 246 244 250 254 248 252 255 255 257 261 272 279 283 291 298 302 304 305 308 305 301 303 311 320 325 327 327 329 331 328 325 327 330 329 328 326 323 320 316 310 305 304 304 305
160 159 157 154 154 154 151 135 120 121 119 118 118 108 90 71 37 4 8 22 17 8 358 7 23 24 13 6 13 14 11 12 1 349 354 9 313 295 288 282 271 275 270 283 289 277 266 261 260 264 270 276 282 289 297 301 301 302 308 311 308 305 308 313 320 325 329 330 328 326 326 326 328 330 330 329 327 325 322 319 315 308 303 303 305
166 163 159 156 152 147 143 136 126 119 113 111 114 109 101 90 76 43 360 14 28 31 26 20 28 39 38 35 36 31 25 25 14 11 21 16 346 332 327 336 335 322 314 311 307 286 265 263 268 275 281 283 288 297 301 302 303 306 310 313 312 312 313 315 319 325 328 327 324 323 325 326 327 329 331 331 329 325 322 321 319 313 306 304 305
165 163 160 159 153 145 143 140 130 121 119 120 118 115 119 125 124 120 106 65 35 45 47 38 39 50 45 35 35 35 32 28 20 21 27 16 5 2 353 355 347 331 334 331 329 311 281 285 294 293 296 297 300 306 308 307 310 314 315 316 317 317 318 318 321 324 325 323 322 323 326 328 328 329 330 331 329 325 323 322 321 317 311 306 306
168 167 164 163 159 152 151 150 143 136 133 134 133 133 137 140 144 147 141 138 138 157 87 51 48 53 49 36 27 23 21 18 15 20 21 14 14 9 352 356 348 331 337 334 329 318 305 307 312 312 323 333 332 328 327 324 321 323 322 320 320 319 318 318 318 319 319 319 319 321 325 327 329 330 330 330 329 326 324 321 318 315 312 309 308
171 171 168 166 162 158 158 157 155 153 154 158 160 161 164 164 167 167 159 158 158 146 139 127 79 60 66 64 47 39 25 5 8 22 26 21 17 5 349 350 344 334 333 329 324 317 317 347 15 17 13 10 7 359 351 347 340 334 328 322 319 316 315 316 317 317 317 316 317 319 322 325 328 330 330 329 328 327 325 320 315 313 311 312 311
172 172 170 167 163 160 160 159 160 162 166 172 176 180 185 184 180 178 177 184 185 170 154 148 149 105 83 85 72 62 56 42 35 38 38 33 20 7 0 352 340 337 332 323 321 325 355 11 13 18 22 14 3 356 350 344 341 337 332 326 322 321 323 325 324 320 316 315 317 320 323 325 328 330 330 329 328 327 325 320 317 315 314 313 312
170 169 168 167 164 162 161 161 163 165 166 171 177 183 187 185 183 182 181 185 187 180 174 173 167 152 130 128 107 75 63 54 52 52 50 46 35 20 15 10 353 333 326 322 313 317 353 2 0 357 2 358 351 346 340 336 338 337 335 333 332 333 334 330 324 318 317 318 319 321 323 326 328 330 331 331 330 329 326 323 321 320 317 315 313
165 164 165 165 163 162 163 163 164 164 164 166 170 173 175 175 173 172 169 171 175 170 169 170 163 157 156 157 141 89 74 59 50 49 48 45 39 30 22 16 11 357 313 310 311 315 344 358 2 345 339 343 342 339 338 339 340 338 335 334 333 333 332 328 324 322 322 321 319 319 324 327 329 331 332 333 332 330 329 328 326 324 322 320 316
160 161 162 161 161 161 161 159 159 159 159 160 161 161 163 160 158 159 158 158 158 153 151 153 152 155 160 160 154 129 109 81 61 50 43 44 40 32 24 21 21 18 354 315 305 351 358 356 354 345 337 334 333 335 339 342 341 340 340 338 338 339 336 332 330 329 328 326 324 327 330 330 330 331 334 335 334 332 330 329 330 329 328 326 322
156 157 158 157 156 155 154 152 151 152 152 152 153 154 155 152 147 146 147 151 149 141 138 139 139 144 149 145 139 136 138 138 128 105 67 71 65 41 32 30 27 22 11 358 313 337 355 352 342 336 334 332 332 334 337 340 342 345 345 344 345 345 341 339 341 343 344 340 335 333 331 329 329 332 335 336 336 335 332 332 333 333 333 332 331
158 155 154 152 150 149 147 146 147 148 148 147 149 151 150 145 142 138 138 142 140 133 130 127 125 128 129 127 123 123 128 133 129 125 109 99 92 65 50 41 29 20 13 12 355 314 332 340 336 333 336 338 338 338 338 339 342 343 343 344 345 344 343 346 350 351 346 339 334 332 330 330 330 331 334 336 337 336 334 335 337 337 336 336 336
156 153 149 147 146 145 143 143 144 144 144 145 147 149 146 140 136 134 134 135 130 126 123 119 116 117 117 114 112 110 114 117 112 112 111 104 102 92 77 67 46 31 21 15 2 322 321 331 335 337 341 340 337 340 342 340 340 339 338 341 344 345 348 349 346 342 338 336 337 336 334 332 329 330 333 335 335 334 335 336 337 338 338 338 337
153 150 147 144 143 143 142 141 141 140 140 141 143 144 142 137 132 129 129 129 126 122 119 114 111 113 113 109 105 105 108 107 99 99 99 93 93 90 79 78 67 50 40 22 5 339 326 330 334 337 341 341 338 339 341 340 340 338 336 339 344 346 345 342 338 337 337 339 338 335 332 331 331 333 334 333 332 332 334 334 335 335 336 338 338
148 146 145 143 143 142 140 137 136 135 134 134 136 137 134 130 127 124 124 123 121 117 113 111 109 107 106 102 98 98 102 99 88 86 88 83 83 83 71 66 62 47 40 34 16 351 329 325 332 338 340 340 338 337 340 343 341 338 337 339 342 340 338 338 338 338 338 338 337 337 339 339 339 338 335 331 329 328 329 330 333 334 335 337 339
142 140 140 140 139 136 133 130 128 127 127 127 128 127 126 125 122 118 116 115 113 111 108 106 104 103 101 97 94 94 96 92 81 79 84 81 78 77 67 60 57 42 36 42 23 353 331 322 330 340 340 338 338 341 348 347 341 340 342 341 338 337 338 340 339 337 338 339 339 342 346 344 337 331 327 325 323 322 325 330 335 337 337 338 339
134 133 132 131 131 128 124 123 121 120 120 121 121 118 116 116 115 112 110 108 106 105 104 101 98 96 95 93 92 93 90 83 76 76 81 81 77 73 66 58 51 48 48 40 19 2 348 333 334 339 340 341 341 345 351 347 341 343 343 339 337 337 338 339 339 340 339 340 342 343 343 337 329 324 323 322 321 323 328 334 337 337 338 339 339
128 127 126 124 123 121 118 116 115 113 113 112 112 111 110 109 108 107 106 105 103 102 100 98 96 93 92 91 89 88 84 76 71 72 75 74 66 54 46 41 38 40 39 29 17 12 2 348 343 341 340 343 344 343 347 347 343 341 339 336 336 338 339 339 340 343 342 342 342 341 337 331 327 326 326 327 329 332 336 338 338 337 338 337 338
125 123 121 119 117 116 114 112 111 111 110 108 105 105 105 105 104 102 101 100 99 98 96 94 92 89 89 90 87 83 79 73 70 71 73 72 63 49 36 31 33 34 32 26 17 13 3 351 348 344 338 341 343 338 339 343 343 341 341 340 335 337 340 338 337 340 342 343 342 338 335 333 332 333 334 335 337 338 338 338 338 338 338 336 335
121 121 119 117 116 114 113 113 113 113 111 107 104 104 102 101 100 98 95 94 92 92 92 90 85 78 75 80 79 70 63 63 64 64 66 64 62 54 38 28 29 31 32 29 16 7 358 345 342 339 332 331 336 335 336 343 346 343 344 342 333 332 336 335 335 338 339 341 340 337 337 338 338 340 341 339 339 339 337 336 337 337 337 336 333
118 118 118 117 115 114 113 113 112 111 107 103 103 104 103 99 99 98 95 93 90 89 89 88 84 74 66 68 68 59 56 59 57 54 55 53 50 43 31 25 27 25 26 22 8 357 345 335 333 334 330 326 331 336 337 343 345 338 338 340 334 332 333 332 334 338 340 340 339 337 338 341 339 338 339 338 336 337 335 334 335 336 336 335 333
117 116 116 116 115 114 113 111 109 105 103 102 104 106 105 102 101 101 99 97 97 95 92 89 88 82 75 69 60 56 65 67 58 54 55 51 45 38 31 31 26 16 10 1 356 353 342 335 334 335 333 328 331 337 337 337 339 337 338 339 334 333 335 332 331 337 342 343 339 335 337 340 337 334 335 335 333 334 334 332 333 333 333 334 333
115 115 114 112 112 112 111 107 103 99 98 104 108 108 107 107 106 104 102 102 103 101 97 93 91 89 87 80 59 50 63 65 56 59 63 56 53 50 46 43 29 13 4 349 344 347 344 336 333 333 332 326 327 332 334 334 336 335 336 335 331 332 336 334 327 330 338 341 335 328 330 336 337 332 331 332 331 332 332 330 330 330 331 333 333
113 112 110 109 108 109 107 103 97 92 92 102 111 111 108 108 108 106 103 102 103 101 97 93 92 92 94 89 69 49 42 42 42 49 53 53 58 60 55 50 35 14 0 345 337 338 338 332 327 326 329 327 324 325 329 331 330 329 329 329 330 328 328 327 318 316 327 336 332 322 323 330 332 329 327 329 331 331 330 328 328 328 331 334 334
109 107 105 105 105 105 104 100 94 88 86 93 106 111 109 107 108 107 102 98 98 98 96 92 90 92 94 91 78 57 30 29 35 36 37 40 47 51 47 42 30 13 1 350 336 331 329 325 320 317 320 323 319 319 325 326 322 322 323 322 324 323 318 318 313 310 321 332 328 318 317 323 327 327 325 326 329 329 328 329 329 330 331 333 334
108 105 104 104 104 104 103 98 92 86 81 87 101 108 105 101 104 107 104 100 97 96 96 95 92 93 96 93 84 66 27 24 30 26 24 23 26 31 31 27 19 14 15 13 1 341 331 326 316 309 312 316 314 315 323 326 320 317 316 314 316 315 311 310 309 310 319 330 328 319 313 318 325 326 322 324 326 326 327 329 330 331 332 332 332
107 106 106 105 103 101 100 97 92 84 76 79 95 103 100 96 98 104 106 104 100 96 95 93 88 88 95 99 96 84 40 29 28 21 15 10 10 14 15 13 12 16 27 28 11 348 330 320 312 308 310 314 316 317 322 325 320 317 315 313 311 310 308 307 309 311 317 327 330 322 308 313 324 325 320 322 324 324 325 327 330 332 333 331 328
106 106 105 103 101 99 98 98 93 84 72 71 86 99 100 96 96 99 100 99 96 94 93 90 83 76 78 90 101 93 48 38 29 17 10 6 6 8 6 5 7 11 23 24 356 333 327 323 319 316 317 321 323 322 323 324 322 321 320 315 314 315 311 308 311 313 318 326 329 324 312 313 323 323 318 320 323 321 321 325 332 335 332 327 325
106 106 106 105 102 100 99 98 94 86 73 66 77 94 101 99 97 97 98 97 94 91 92 88 78 67 60 62 66 47 37 37 24 13 10 7 7 7 1 359 359 360 4 356 339 336 338 337 337 339 338 339 336 329 330 334 334 332 326 318 320 323 318 312 314 316 319 323 328 332 326 318 321 323 319 319 321 318 318 324 331 332 327 325 326
107 110 111 109 106 102 97 93 91 88 78 67 69 84 96 101 102 103 104 101 96 92 93 89 79 67 54 43 39 33 29 26 16 10 11 7 6 5 358 354 352 349 348 343 339 342 344 343 348 351 346 343 340 337 340 343 342 340 335 329 331 332 325 318 318 317 317 319 327 334 327 317 319 325 323 320 319 317 318 324 327 327 326 326 325
109 112 113 111 107 103 97 89 86 87 83 73 66 72 84 95 103 106 103 94 89 88 89 87 82 76 64 48 39 25 10 9 10 9 9 7 3 1 358 353 344 338 337 336 337 341 343 344 347 345 341 342 344 344 344 342 338 339 337 331 332 334 330 322 320 320 317 313 323 330 326 318 320 324 324 323 319 316 319 323 323 325 325 323 322